[Iaude] MPEC K61: 2020 KY [a=1.18,e=0.11,i=4.0,H=26.3]

mpec at marsden.cfa.harvard.edu mpec at marsden.cfa.harvard.edu
Mon May 18 21:06:24 EDT 2020


M.P.E.C. 2020-K61                                  Issued 2020 May 19, 01:05 UT

     The Minor Planet Electronic Circulars contain information on unusual
         minor planets and routine data on comets.  They are published
    on behalf of Division F of the International Astronomical Union by the
          Minor Planet Center, Smithsonian Astrophysical Observatory,
                          Cambridge, MA 02138, U.S.A.

             Prepared using the Tamkin Foundation Computer Network

                              MPC at CFA.HARVARD.EDU
            URL https://www.minorplanetcenter.net/    ISSN 1523-6714

                                    2020 KY                                     


Observations:
     K20K00Y* C2020 05 17.53398516 23 23.890+20 03 19.83         21.53wUEK061F51
     K20K00Y  C2020 05 17.54689916 23 24.680+20 02 48.73         21.83wUEK061F51
     K20K00Y  C2020 05 17.55979116 23 25.492+20 02 17.64         21.71wUEK061F51
     K20K00Y  C2020 05 17.57271516 23 26.349+20 01 46.21         21.64wUEK061F51
     K20K00Y ^C2020 05 18.47830516 25 17.847+19 26 46.55         21.35GVEK061568
     K20K00Y ^C2020 05 18.47925616 25 17.899+19 26 44.20         21.58GVEK061568
     K20K00Y ^C2020 05 18.48020316 25 17.949+19 26 41.89         21.60GVEK061568
     K20K00Y ^C2020 05 18.48116216 25 18.001+19 26 39.54         21.38GVEK061568
     K20K00Y  C2020 05 18.96914 16 26 18.14 +19 05 24.4          21.9 VVEK061033
     K20K00Y  C2020 05 18.97273 16 26 18.42 +19 05 15.2          21.7 VVEK061033
     K20K00Y  C2020 05 18.97630 16 26 18.68 +19 05 06.6          21.9 VVEK061033

Observer details:
033 Karl Schwarzschild Observatory, Tautenburg.  Observers S. Melnikov, B. 
   Stecklum.  Measurer B. Stecklum.  1.34-m f/3 Schmidt + CCD.
568 Mauna Kea.  Observers R. Wainscoat, L. Wells, T. Burdullis.  Measurers R. 
   Weryk, R. Wainscoat.  3.6-m Canada-France-Hawaii Telescope + CCD.
F51 Pan-STARRS 1, Haleakala.  Observers J. Bulger, T. Lowe, A. Schultz, M. 
   Willman.  Measurers K. Chambers, S. Chastel, T. de Boer, L. Denneau, J. 
   Fairlamb, H. Flewelling, M. Huber, C.-C. Lin, E. Magnier, Y. Ramanjooloo, R. 
   Wainscoat, R. Weryk.  1.8-m Ritchey-Chretien + CCD.

Orbital elements:
2020 KY                                                  Earth MOID = 0.0442 AU
Epoch 2020 May 18.0 TT = JDT 2458987.5                  Pike                    
M 354.04358              (2000.0)            P               Q                  
n   0.76774724     Peri.  156.45397     -0.42621439     +0.90198972             
a   1.1812012      Node    88.25819     -0.84055295     -0.36669676             
e   0.1070035      Incl.    3.95623     -0.33438307     -0.22792110             
P   1.28           H   26.36          G   0.15           U   8                  
Residuals in seconds of arc
200517 F51  0.1-  0.0+    200518 568  0.0-  0.0+    200518 033  0.2-  0.1+
200517 F51  0.0+  0.1-    200518 568  0.0+  0.0-    200518 033  0.1-  0.3-
200517 F51  0.0+  0.0-    200518 568  0.0+  0.0+    200518 033  0.2-  0.1-
200517 F51  0.0+  0.1+    200518 568  0.0+  0.0-
Ephemeris:
2020 KY                  a,e,i = 1.18, 0.11, 4                   q = 1.0548
Date    TT    R. A. (2000) Decl.     Delta      r    Elong.  Phase     V
2020 04 19    15 33 32.5 +24 48 25   0.09327 1.0733   135.8    40.7    23.0
...
2020 05 04    15 58 37.0 +25 03 13   0.07304 1.0614   135.2    42.0    22.4
...
2020 05 12    16 12 57.5 +22 52 38   0.06368 1.0575   136.7    40.9    22.1
...
2020 05 18    16 24 22.7 +19 45 41   0.05738 1.0557   139.2    38.8    21.8
2020 05 19    16 26 20.6 +19 05 32   0.05640 1.0555   139.8    38.2    21.8
2020 05 20    16 28 19.8 +18 22 33   0.05545 1.0553   140.4    37.7    21.7
...
2020 05 26    16 40 45.6 +13 00 38   0.05034 1.0548   145.1    33.3    21.4
...
2020 06 03    16 59 08.6 +02 52 35   0.04564 1.0557   154.6    24.4    20.9
...
2020 06 18    17 37 57.0 -21 16 45   0.04620 1.0622   177.1     2.8    20.1

M. P. C. Staff               (C) Copyright 2020 MPC           M.P.E.C. 2020-K61




More information about the Iaude mailing list